This demonstration page uses our WeatherBlox Daily Observations layout. Learn more.

Left ArrowRight Arrow

39.08367, -84.50855

Hourly Observations for August 17, 2017

Temp ( °F °C ) Dew Point ( °F °C ) Humidity (%) Winds ( mph kmh ) Pressure ( in mb ) Visibility ( mi km ) Precip ( " mm )
12:53 am 00:53 Clear 76 24.4 73 22.8 91 91 SSW 7 11 29.96 1015 10 16 N/A
1:53 am 01:53 Clear 75 23.9 72 22.2 90 90 SSW 3 6 29.94 1014 10 16 N/A
2:53 am 02:53 Clear 75 23.9 72 22.2 90 90 N N/A 29.93 1013 10 16 N/A
3:53 am 03:53 Mostly Cloudy 73 22.8 72 22.2 96 96 N N/A 29.92 1013 10 16 N/A
4:53 am 04:53 Mostly Cloudy 74 23.3 72 22.2 94 94 N N/A 29.93 1013 10 16 N/A
5:53 am 05:53 Mostly Clear 73 22.8 71 21.7 94 94 SSW 6 9 29.93 1014 10 16 N/A
6:53 am 06:53 Mostly Cloudy 73 22.8 72 22.2 96 96 N N/A 29.94 1014 10 16 N/A
7:53 am 07:53 Mostly Sunny 75 23.9 73 22.8 94 94 SSW 3 6 29.95 1014 10 16 N/A
8:53 am 08:53 Mostly Cloudy 78 25.6 75 23.9 90 90 S 7 11 29.96 1014 10 16 N/A
9:45 am 09:45 Mostly Sunny 81 27.2 76 24.4 85 85 S 8 13 29.94 1014 10 16 N/A
9:53 am 09:53 Mostly Sunny 82 27.8 77 25 85 85 S 8 13 29.93 1014 10 16 N/A
10:28 am 10:28 Mostly Cloudy 83 28.3 76 24.4 79 79 SSW 12 19 29.91 1013 10 16 N/A
10:53 am 10:53 Mostly Cloudy 85 29.4 77 25 77 77 SSW 10 17 29.92 1013 10 16 N/A
11:53 am 11:53 Partly Cloudy 87 30.6 76 24.4 70 70 SW 14 22 29.91 1013 10 16 N/A
12:53 pm 12:53 Mostly Cloudy 89 31.7 75 23.9 63 63 SSW 17 28 29.87 1012 10 16 N/A
1:53 pm 13:53 Partly Cloudy 90 32.2 75 23.9 62 62 SSW 18 30 29.85 1011 10 16 N/A
2:53 pm 14:53 Mostly Cloudy with Nearby Thunderstorms 89 31.7 74 23.3 61 61 S 18 30 29.82 1010 10 16 N/A
3:16 pm 15:16 Mostly Cloudy with Thunderstorms 84 28.9 73 22.8 70 70 WNW 17 28 29.88 1012 10 16 N/A
3:20 pm 15:20 Cloudy with Thunderstorms 78 25.6 74 23.3 87 87 WNW 15 24 29.88 1012 2 3 0.10 2.54
3:31 pm 15:31 Cloudy with Nearby Thunderstorms 75 23.9 74 23.3 96 96 WNW 12 19 29.85 1011 2 3 0.24 6.10
3:38 pm 15:38 Cloudy with Heavy Thunderstorms 75 23.9 74 23.3 96 96 W 20 31 29.88 1012 2 3 0.39 9.91
3:50 pm 15:50 Cloudy with Light Thunderstorms 75 24 75 24 100 100 SW 15 24 29.88 1012 4 6 0.52 13.21
3:58 pm 15:58 Cloudy with Heavy Thunderstorms 75 23.9 74 23.3 96 96 SSW 12 19 29.88 1012 4 6 0.03 0.76
4:35 pm 16:35 Partly Cloudy 75 23.9 73 22.8 94 94 S 8 13 29.88 1012 10 16 0.04 1.02
4:53 pm 16:53 Mostly Sunny 75 23.9 73 22.8 94 94 SSW 10 17 29.86 1011 10 16 0.04 1.02
5:53 pm 17:53 Sunny 80 26.7 75 23.9 85 85 SSW 7 11 29.84 1011 10 16 N/A
6:53 pm 18:53 Mostly Cloudy 81 27.2 75 23.9 82 82 SW 13 20 29.83 1010 10 16 N/A
7:53 pm 19:53 Mostly Cloudy 80 26.7 75 23.9 85 85 SSW 8 13 29.85 1011 10 16 N/A
8:21 pm 20:21 Partly Cloudy with Nearby Thunderstorms 78 25.6 75 23.9 90 90 SSW 9 15 29.85 1011 10 16 N/A
8:36 pm 20:36 Partly Cloudy with Rain 78 25.6 75 23.9 90 90 S 13 20 29.85 1011 6 10 0.01 0.25
8:53 pm 20:53 Mostly Cloudy with Light Rain 78 25.6 76 24.4 93 93 SW 14 22 29.86 1011 7 11 0.04 1.02
9:35 pm 21:35 Cloudy with Heavy Rain 76 24.4 75 23.9 97 97 SSW 8 13 29.88 1012 2 3 0.20 5.08
9:42 pm 21:42 Cloudy with Light Rain 75 23.9 75 23.9 100 100 SW 6 9 29.88 1012 4 6 0.20 5.08
9:53 pm 21:53 Cloudy 75 23.9 75 23.9 100 100 SE 5 7 29.86 1011 10 16 0.20 5.08
10:53 pm 22:53 Mostly Cloudy 75 23.9 74 23.3 96 96 N N/A 29.87 1012 10 16 N/A
11:53 pm 23:53 Partly Cloudy 73 22.8 73 22.8 100 100 N N/A 29.87 1011 7 11 N/A

Powered by AerisWeather